Temp
68 69 67 66 63 63 62 61 62 62 61 62 61 61 60 60 59 58 57 57 56 55 56 55 55 54 53 53 51 53 52 52
68 66 65 64 62 62 61 60 60 61 59 57 57 57 58 58 58 59 57 56 55 54 54 54 53 52 51 51 49 47 47 49
65 64 62 61 61 61 61 60 60 60 60 58 57 57 58 58 57 58 56 56 54 55 52 51 52 51 49 46 45 44 44 46
62 61 61 60 59 59 61 60 59 58 59 59 58 58 57 55 55 54 55 56 55 54 53 51 50 50 47 46 45 43 41 44
63 62 60 59 58 60 60 60 59 58 57 56 54 53 51 52 52 53 54 55 54 54 52 50 49 48 46 45 45 44 43 40
63 62 62 62 58 58 57 59 58 57 55 54 53 50 51 52 52 51 52 52 53 52 50 49 46 46 45 44 43 43 43 41
65 64 63 61 57 56 56 57 57 56 55 53 51 49 49 49 49 49 49 50 50 50 50 47 46 46 46 44 43 42 42 42
63 62 61 58 56 55 56 58 55 55 53 52 51 50 50 49 49 48 47 47 47 47 47 45 44 45 46 44 42 43 43 41
63 63 61 58 57 57 57 57 55 54 53 52 51 51 49 49 48 47 47 46 46 47 45 44 44 44 45 44 43 43 43 40
63 63 60 59 57 55 55 55 55 54 52 51 50 50 48 47 48 48 46 47 48 46 44 42 43 44 43 43 41 41 40 40
63 63 60 59 57 56 54 55 54 53 53 50 50 49 48 48 48 46 46 45 46 44 43 43 42 41 42 41 40 40 38 37
63 62 61 58 57 54 52 53 53 51 51 49 48 47 47 47 46 45 45 44 45 44 43 42 40 40 40 39 39 39 35 35
63 61 57 56 54 53 52 51 51 50 49 48 47 47 47 45 45 45 44 44 44 43 43 41 39 39 38 38 36 36 34 32
61 57 54 51 52 52 51 50 50 50 50 47 46 45 45 44 44 44 44 43 43 43 41 39 38 38 37 36 35 33 32 32
60 56 52 48 49 47 48 47 47 48 48 47 44 44 44 43 43 43 43 43 42 42 41 39 37 37 36 34 33 31 31 31
60 55 48 48 46 48 48 47 47 47 47 46 44 44 45 44 43 42 43 42 42 42 40 39 37 38 35 31 30 30 29 29
60 52 49 48 47 47 49 48 47 47 46 44 45 45 44 43 42 42 42 41 40 40 39 37 35 39 35 34 31 28 29 30
59 51 50 50 49 50 47 47 46 46 45 45 45 44 43 42 43 42 40 39 39 38 37 37 36 35 35 34 33 29 28 28
58 55 52 52 52 49 47 47 45 44 44 44 44 43 42 42 41 40 39 38 38 37 36 36 35 37 34 33 33 30 29 28
MSLP
1014.82 1015.59 1016.47 1017.24 1017.72 1018.16 1018.49 1018.76 1018.82 1019.03 1018.89 1018.79 1019.05 1019.07 1019.40 1019.67 1020.07 1020.38 1020.65 1020.78 1020.78 1020.71 1020.45 1020.35 1020.07 1019.92 1019.70 1019.49 1019.30 1018.91 1018.53 1017.93
1014.73 1015.62 1016.52 1017.20 1017.82 1018.22 1018.54 1018.82 1019.03 1019.01 1019.16 1019.34 1019.42 1019.61 1019.62 1019.92 1020.21 1020.41 1020.70 1020.90 1021.04 1020.87 1020.87 1020.83 1020.69 1020.47 1020.25 1020.21 1020.20 1019.91 1019.41 1018.95
1014.59 1015.72 1016.49 1017.09 1017.62 1018.11 1018.42 1018.88 1019.27 1019.32 1019.44 1019.58 1019.63 1019.66 1019.73 1019.98 1020.31 1020.44 1020.81 1020.88 1020.98 1020.96 1021.07 1021.00 1021.04 1020.96 1020.87 1021.21 1021.12 1020.87 1020.56 1020.19
1014.16 1015.53 1016.41 1017.03 1017.61 1017.97 1018.25 1018.82 1019.35 1019.77 1019.69 1019.81 1019.72 1019.62 1019.83 1020.41 1020.71 1020.83 1021.03 1020.84 1020.87 1020.92 1021.04 1021.21 1021.29 1020.95 1021.10 1021.64 1021.87 1021.61 1020.98 1020.63
1013.33 1014.96 1016.17 1016.98 1017.62 1018.01 1018.43 1018.87 1019.42 1019.99 1020.08 1020.15 1020.24 1020.41 1020.68 1020.89 1020.98 1021.06 1020.97 1020.91 1021.02 1021.16 1021.47 1021.57 1021.57 1021.65 1021.61 1021.86 1022.06 1021.98 1021.54 1020.95
1012.57 1014.24 1015.58 1016.66 1017.65 1018.26 1018.62 1018.96 1019.48 1019.99 1020.28 1020.46 1020.65 1020.97 1021.07 1021.01 1021.10 1021.22 1021.13 1021.17 1021.01 1021.22 1021.46 1021.65 1021.92 1022.01 1022.29 1022.29 1022.24 1022.00 1021.67 1021.41
1011.81 1013.64 1015.05 1016.31 1017.60 1018.39 1018.77 1018.91 1019.45 1019.98 1020.33 1020.66 1020.99 1021.28 1021.43 1021.35 1021.30 1021.26 1021.41 1021.37 1021.39 1021.33 1021.58 1021.99 1022.32 1021.93 1021.83 1022.18 1022.22 1021.93 1021.59 1021.36
1011.13 1012.94 1014.47 1015.95 1017.50 1018.41 1018.70 1018.86 1019.43 1020.02 1020.48 1020.89 1021.14 1021.47 1021.51 1021.61 1021.60 1021.77 1021.72 1021.65 1021.78 1022.00 1022.12 1022.30 1022.38 1022.24 1021.90 1022.04 1022.06 1021.65 1021.37 1021.17
1010.46 1012.23 1013.95 1015.52 1017.02 1017.99 1018.39 1018.75 1019.34 1020.03 1020.52 1020.96 1021.32 1021.64 1021.72 1021.82 1022.07 1022.03 1021.91 1021.88 1021.82 1021.84 1022.20 1022.55 1022.54 1022.24 1021.98 1021.94 1021.79 1021.37 1021.22 1021.24
1009.92 1011.64 1013.31 1014.94 1016.41 1017.64 1018.43 1018.94 1019.46 1020.07 1020.63 1021.10 1021.43 1021.69 1021.91 1021.95 1022.17 1022.01 1022.19 1022.18 1021.95 1021.88 1022.23 1022.62 1022.67 1022.27 1022.07 1021.94 1021.82 1021.56 1021.46 1021.31
1009.52 1011.08 1012.84 1014.46 1016.06 1017.43 1018.40 1018.88 1019.42 1020.03 1020.52 1021.16 1021.49 1021.67 1022.02 1022.17 1022.35 1022.24 1022.18 1022.34 1022.00 1022.20 1022.33 1022.53 1022.65 1022.61 1022.32 1022.11 1021.92 1021.79 1021.65 1021.59
1009.22 1010.78 1012.61 1014.33 1015.90 1017.36 1018.45 1019.03 1019.60 1020.23 1020.76 1021.18 1021.55 1021.82 1022.10 1022.06 1022.22 1022.37 1022.33 1022.30 1022.03 1022.21 1022.46 1022.72 1022.94 1022.81 1022.60 1022.30 1022.10 1021.92 1022.09 1021.86
1009.18 1010.51 1012.39 1014.15 1015.73 1017.11 1018.29 1019.09 1019.66 1020.42 1020.83 1021.19 1021.47 1021.72 1022.13 1022.34 1022.29 1022.38 1022.40 1022.28 1022.14 1022.22 1022.48 1022.91 1023.11 1023.00 1022.72 1022.32 1022.22 1022.29 1022.14 1021.70
1009.24 1011.07 1012.66 1014.32 1015.68 1016.82 1018.09 1019.16 1019.75 1020.27 1020.65 1020.99 1021.35 1021.81 1022.06 1022.36 1022.48 1022.58 1022.30 1022.27 1022.11 1022.21 1022.47 1022.83 1022.98 1022.90 1022.50 1022.52 1022.48 1022.43 1022.17 1021.65
1009.19 1011.14 1012.90 1014.63 1015.87 1016.94 1018.24 1019.49 1020.11 1020.49 1020.65 1020.99 1021.27 1021.76 1022.04 1022.21 1022.26 1022.49 1022.37 1022.17 1022.05 1022.19 1022.23 1022.44 1022.71 1022.42 1022.53 1022.64 1022.69 1022.52 1022.07 1021.39
1008.72 1011.00 1013.19 1014.95 1016.39 1017.47 1018.64 1019.83 1020.22 1020.34 1020.48 1020.87 1021.12 1021.64 1022.00 1022.17 1022.21 1022.21 1022.22 1022.08 1021.99 1022.05 1022.03 1022.19 1022.42 1022.10 1022.67 1022.71 1022.67 1022.39 1021.83 1021.16
1008.44 1010.97 1013.23 1014.91 1016.33 1017.38 1018.40 1019.49 1019.97 1020.13 1020.55 1020.67 1021.15 1021.41 1021.67 1021.87 1022.03 1021.95 1022.03 1021.94 1021.98 1021.91 1021.84 1022.03 1022.13 1022.06 1022.70 1022.60 1022.36 1022.20 1021.67 1020.98
1007.59 1010.43 1012.90 1014.54 1015.75 1016.77 1018.22 1019.31 1019.95 1020.35 1020.69 1020.81 1021.23 1021.51 1021.51 1021.68 1021.81 1021.88 1021.94 1021.98 1021.93 1021.77 1021.84 1022.01 1022.07 1022.07 1022.47 1022.38 1022.19 1021.95 1021.57 1020.91
1007.62 1009.77 1012.12 1013.83 1015.23 1016.81 1018.23 1019.11 1019.94 1020.31 1020.64 1020.98 1020.92 1021.60 1021.73 1021.81 1021.75 1021.90 1021.96 1021.99 1021.81 1021.81 1021.94 1022.05 1022.05 1022.09 1022.21 1022.32 1022.08 1021.88 1021.53 1020.91
Wind_Speed
12 11 10 9 7 7 6 6 5 4 2 2 4 3 4 4 4 4 6 6 9 8 7 8 8 8 8 8 10 9 9 10
12 10 9 10 7 7 7 7 4 3 4 3 4 4 3 4 4 5 6 5 7 6 7 8 8 7 8 10 9 13 10 11
14 12 10 9 8 7 7 8 5 4 4 3 2 2 2 3 3 4 6 5 5 6 5 6 7 6 8 11 11 10 8 11
15 13 10 9 8 7 8 8 7 5 4 4 3 2 3 4 4 4 5 5 6 5 6 7 8 7 6 9 11 13 9 10
17 15 12 10 7 5 7 7 8 7 5 5 5 4 4 3 3 4 4 6 5 7 9 8 7 7 8 8 9 10 10 8
18 16 14 11 9 6 7 7 8 6 6 6 4 5 3 3 3 5 5 5 6 7 5 6 9 5 7 9 10 10 7 7
18 16 14 12 8 6 6 8 7 6 6 6 5 5 4 4 4 3 4 4 4 5 8 8 8 7 9 7 11 10 9 8
18 18 15 14 11 9 6 8 8 6 6 5 5 4 3 4 5 4 5 4 4 6 7 7 6 8 8 7 8 9 8 7
17 18 15 15 13 10 7 7 9 7 6 4 4 4 3 3 4 3 3 4 3 5 6 7 8 10 7 8 7 7 8 8
18 17 16 15 13 10 6 7 8 6 5 4 4 4 3 3 3 3 4 4 6 6 6 7 7 9 8 9 7 8 9 9
18 16 16 13 13 10 7 5 7 6 5 4 4 4 4 3 3 5 4 5 5 6 6 6 7 9 10 10 8 8 9 9
16 15 15 15 13 12 8 6 7 6 5 4 3 3 3 3 3 4 5 5 6 6 6 7 9 9 10 9 8 11 11 12
15 15 16 15 14 13 10 6 7 6 5 3 3 3 3 3 4 4 4 5 5 5 6 8 10 9 10 9 8 10 12 13
14 16 15 12 11 11 10 7 7 4 4 5 4 3 3 3 4 4 4 5 5 5 4 4 6 8 9 7 9 10 12 13
15 15 14 10 10 9 10 6 4 3 4 3 5 3 1 2 3 4 4 4 5 4 4 3 4 7 7 8 9 11 13 13
19 17 14 13 11 9 9 7 7 5 4 4 4 3 0 2 2 2 3 4 4 4 5 6 4 7 5 5 7 10 13 14
18 20 18 16 14 11 10 9 6 5 5 4 3 2 1 3 2 3 4 4 5 4 4 5 5 4 8 12 13 10 12 14
20 22 17 14 13 12 10 8 6 5 5 4 3 2 1 3 3 4 4 4 5 5 5 6 6 5 12 16 19 9 12 11
18 18 17 15 12 12 10 8 7 5 5 4 4 2 2 3 3 4 4 4 5 5 5 6 6 6 15 17 20 11 12 12
Wind_Direction
158 149 126 119 107 108 99 86 66 93 53 27 67 59 62 63 59 49 37 17 18 355 3 2 3 351 357 354 351 346 340 338
159 141 142 136 137 123 109 96 65 88 64 48 44 36 43 52 49 35 52 30 16 351 7 359 8 354 2 7 355 350 349 352
164 155 153 155 139 134 133 110 77 24 86 84 74 67 51 74 45 35 43 34 27 10 7 359 357 349 10 15 352 347 341 348
167 170 165 143 157 150 131 121 107 68 348 65 28 32 28 41 14 26 355 19 17 27 19 21 353 354 25 9 345 343 333 338
167 171 169 171 144 142 123 122 125 105 20 69 56 41 36 17 19 29 339 30 0 27 16 10 5 359 20 11 346 334 333 334
166 171 170 165 144 161 136 128 119 102 87 61 47 46 21 8 10 355 10 5 28 38 11 13 14 3 12 351 338 335 327 329
165 168 163 155 147 141 166 145 120 104 89 80 65 49 356 10 10 358 18 337 11 22 18 24 355 343 348 352 338 326 324 327
164 167 166 147 159 173 174 148 129 118 103 84 71 48 2 355 17 8 346 5 8 21 20 16 347 335 345 1 326 319 329 336
168 169 162 154 166 169 186 157 131 127 113 99 82 46 28 4 22 354 332 8 359 1 21 11 345 327 1 344 323 323 345 337
170 170 159 161 157 157 170 149 131 132 119 101 84 64 46 28 353 352 15 0 347 24 20 5 333 336 358 336 336 346 347 326
173 167 161 151 148 148 145 170 136 127 114 92 80 61 41 18 347 21 11 11 340 9 15 341 351 356 354 341 344 346 343 342
168 163 153 144 149 142 151 159 149 122 118 105 82 57 30 25 16 10 30 331 8 3 354 4 358 345 343 336 343 344 349 328
165 155 145 147 152 154 156 151 146 144 124 100 97 69 30 15 21 7 11 352 357 353 16 8 341 346 330 335 359 353 336 325
157 145 150 148 155 151 140 156 135 146 133 137 106 84 34 7 17 1 348 357 350 8 29 7 352 335 323 5 1 343 332 324
163 150 142 135 128 125 134 123 127 160 134 127 115 92 36 30 22 359 331 357 341 349 348 48 9 320 22 14 353 339 330 319
169 148 134 131 126 130 144 161 166 167 147 147 115 104 334 29 24 326 344 352 351 339 342 72 348 326 38 13 354 340 327 320
168 139 148 155 157 163 170 168 162 166 154 138 123 129 18 47 343 346 2 355 351 342 354 69 355 23 38 13 2 341 329 323
163 141 150 163 164 164 152 156 147 171 151 144 132 85 17 26 4 6 9 355 338 347 12 27 355 53 38 15 1 343 329 325
148 142 149 157 143 137 134 148 151 162 145 146 121 69 16 16 8 17 349 356 345 9 352 17 344 25 36 13 0 346 332 331